This demonstration page uses our WeatherBlox Daily Observations layout. Learn more.

Left ArrowRight Arrow

Hourly Observations for January 21, 2016

Temp ( °F °C ) Dew Point ( °F °C ) Humidity (%) Winds ( mph kmh ) Pressure ( in mb ) Visibility ( mi km ) Precip ( " mm )
12:53 am 00:53 Clear 45 7.2 24 -4.4 44 44 W 12 19 29.86 1011 10 16 0.00 0.00
1:53 am 01:53 Clear 45 7.2 25 -3.9 46 46 WNW 8 13 29.90 1012 10 16 0.00 0.00
3:53 am 03:53 Mostly Clear 47 8.3 23 -5 39 39 NNW 13 20 29.92 1013 10 16 0.00 0.00
4:53 am 04:53 Partly Cloudy 51 10.6 14 -10 23 23 NNW 30 48 29.93 1014 10 16 0.00 0.00
5:53 am 05:53 Clear 49 9.4 13 -10.6 23 23 NW 29 46 29.97 1015 10 16 0.00 0.00
6:53 am 06:53 Clear 46 7.8 17 -8.3 31 31 NNW 22 35 30.06 1018 10 16 0.00 0.00
7:53 am 07:53 Sunny 43 6.1 19 -7.2 38 38 WNW 12 19 30.13 1020 10 16 0.00 0.00
8:53 am 08:53 Sunny 46 7.8 25 -3.9 44 44 NNW 13 20 30.18 1022 10 16 0.00 0.00
9:53 am 09:53 Sunny 49 9.4 28 -2.2 44 44 N 18 30 30.22 1023 10 16 0.00 0.00
10:53 am 10:53 Sunny 52 11.1 25 -3.9 35 35 N 18 30 30.25 1024 10 16 0.00 0.00
11:53 am 11:53 Sunny 55 12.8 26 -3.3 33 33 N 16 26 30.26 1025 10 16 0.00 0.00
12:53 pm 12:53 Sunny 57 13.9 24 -4.4 28 28 N 16 26 30.24 1024 10 16 0.00 0.00
1:53 pm 13:53 Sunny 58 14.4 23 -5 26 26 N 17 28 30.22 1023 10 16 0.00 0.00
2:53 pm 14:53 Sunny 59 15 21 -6.1 23 23 N 15 24 30.19 1023 10 16 0.00 0.00
3:53 pm 15:53 Sunny 59 15 21 -6.1 23 23 N 22 35 30.17 1022 10 16 0.00 0.00
4:53 pm 16:53 Sunny 59 15 21 -6.1 23 23 N 15 24 30.17 1022 10 16 0.00 0.00
5:53 pm 17:53 Sunny 56 13.3 22 -5.6 27 27 NNW 8 13 30.19 1022 10 16 0.00 0.00
6:53 pm 18:53 Clear 47 8.3 22 -5.6 37 37 NW 7 11 30.22 1023 10 16 0.00 0.00
7:53 pm 19:53 Clear 42 5.6 22 -5.6 45 45 WNW 7 11 30.26 1025 10 16 0.00 0.00
8:53 pm 20:53 Clear 40 4.4 23 -5 51 51 WNW 8 13 30.28 1025 10 16 0.00 0.00
9:53 pm 21:53 Clear 39 3.9 22 -5.6 50 50 NW 6 9 30.29 1026 10 16 0.00 0.00
10:53 pm 22:53 Clear 36 2.2 22 -5.6 57 57 NNW 6 9 30.30 1026 10 16 0.00 0.00
11:53 pm 23:53 Clear 34 1.1 22 -5.6 61 61 N 7 11 30.32 1027 10 16 0.00 0.00

Powered by AerisWeather